Miscellaneous Local Product
Issued by NWS North Platte, NE

Home | Current Version | Previous Version | Text Only | Print | Product List | Glossary On
Versions: 1 2 3 4 5 6 7 8 9 10 11 12 13 14 15 16 17 18 19 20 21 22 23 24 25 26 27 28 29 30 31 32 33 34 35 36 37 38 39 40 41 42 43 44 45 46 47 48 49 50
000
AXUS43 KLBF 231910
MISLBF


WESTERN AND NORTH CENTRAL NEBRASKA HOURLY WEATHER ROUNDUP
NATIONAL WEATHER SERVICE NORTH PLATTE NE
100 PM CST SUN NOV 23 2014

***STATIONS NOT REPORTING VARIABLES SUCH AS SKY/WEATHER OR
PRESSURE ARE PROVIDED BY THE NEBRASKA DEPARTMENT OF
ROADS...RAWS...AND APRS NETWORKS...AND ARE NOT UNDER
NATIONAL WEATHER SERVICE QUALITY CONTROL***

...OBSERVATIONS IN AND NEAR THE EASTERN PANHANDLE OF NEBRASKA...

CITY           SKY/WX    TMP DP  RH WIND       PRES   REMARKS
PINE RIDGE     SUNNY     44  21  40 NW15G22   29.71F
CHADRON        SUNNY     41  21  44 NW32G40   29.76F
ALLIANCE       SUNNY     43  14  31 NW26G39   29.74F
SIDNEY         MOSUNNY   44  14  29 N33G39    29.75F
WHITECLAY        N/A     41  18  39 NW16        N/A
LISCO            N/A     44   6  20 W29         N/A
BIG SPRINGS      N/A     46  16  30 NW20        N/A
LEWELLEN         N/A     16 -15  24 CALM        N/A
$$

...OBSERVATIONS IN NORTH CENTRAL NEBRASKA...

CITY           SKY/WX    TMP DP  RH WIND       PRES   REMARKS
VALENTINE      MOSUNNY   47  20  34 NW28G39   29.65F
THEDFORD       PTSUNNY   47  21  35 N26G39    29.66F
AINSWORTH      MOSUNNY   45  21  38 NW31G40   29.64F
O`NEILL        CLOUDY    45  30  57 NW28G35   29.60F
ORD            CLOUDY    45  25  45 N23G39    29.59F
BROKEN BOW     CLOUDY    46  24  42 N25G36    29.61F
BROWNLEE         N/A     49  21  33 NW32        N/A
BREWSTER         N/A     46  20  36 W23         N/A
COMSTOCK         N/A     47  25  42 SW22        N/A
$$

...OBSERVATIONS IN SOUTHWEST NEBRASKA AND FAR NORTHEAST COLORADO...

CITY           SKY/WX    TMP DP  RH WIND       PRES   REMARKS
WRAY           FAIR      48  11  22 N33G39    29.73F
HOLYOKE        FAIR      46  12  25 N29G40    29.73F
IMPERIAL       CLOUDY    47  13  25 N30G39    29.71F
OGALLALA       MOSUNNY   49  16  26 N25G33    29.70F
NORTH PLATTE   CLOUDY    48  18  30 NW22G33   29.67F
MCCOOK         CLOUDY    48  20  32 N29G37    29.65F
LEXINGTON      CLOUDY    47  23  39 N28G35    29.62F
PAXTON           N/A     46  21  37 NW14        N/A
GOTHENBURG       N/A     45  19  34 NW24        N/A
CALLAWAY         N/A     45  23  42 N25         N/A
$$

...SOME WEATHER OBSERVATIONS FROM AROUND THE REGION...

CITY           SKY/WX    TMP DP  RH WIND       PRES   REMARKS
DENVER         PTSUNNY   44  11  26 N25G37    29.75F
LARAMIE        MOSUNNY   29  16  58 NW23      29.79F WCI  15
CHEYENNE       MOSUNNY   36  11  35 NW28G40   29.76F WCI  23
SCOTTSBLUFF    SUNNY     44  14  29 NW30G44   29.77F
RAPID CITY     MOSUNNY   43  20  39 NW39G61   29.68F
PIERRE         CLOUDY    41  28  60 NW21      29.61F
WINNER         PTSUNNY   46  26  45 NW33G40   29.63F
SIOUX FALLS    CLOUDY    41  35  79 NW16      29.52F
OMAHA          CLOUDY    47  38  71 NW24G37   29.48R
KANSAS CITY    CLOUDY    57  54  89 W3        29.37F
WICHITA        CLOUDY    59  49  69 N12       29.37F
HAYS           CLOUDY    43  32  65 N20       29.59S
LIBERAL        CLOUDY    45  27  49 N29G44    29.64F
GOODLAND       CLOUDY    45   9  23 N35G49    29.68F
$$



USA.gov is the U.S. government's official web portal to all federal, state and local government web resources and services.